GW0774 Weather Reports


time (UTC)temp
F
wind
direction
speed
knots
gust
knots
rain 1hr
in
rain 24hr
in
rain mn
in
humidity
%
barometer
mb
20260902113055 54 252 9.6 22.6 0.00 0.00 0.00 90 1014.2
20260902112541 54 339 13.9 22.6 0.00 0.00 0.00 90 1014.1
20260902112037 54 273 7.8 16.5 0.00 0.00 0.00 90 1013.9
20260902111559 54 273 8.7 14.8 0.00 0.00 0.00 90 1014.1
20260902111040 54 286 7.8 17.4 0.00 0.00 0.00 89 1014.1
20260902110540 55 290 9.6 17.4 0.00 0.00 0.00 89 1014.2
20260902110046 55 275 8.7 17.4 0.00 0.00 0.00 89 1014.1
20260902105538 55 272 7.8 15.6 0.00 0.00 0.00 89 1014.3
20260902105043 55 272 7.8 13.0 0.00 0.00 0.00 89 1014.4
20260902104557 55 308 8.7 13.0 0.00 0.00 0.00 89 1014.4
20260902104038 55 280 7.0 13.0 0.00 0.00 0.00 90 1014.4
20260902103541 55 276 7.0 11.3 0.00 0.00 0.00 90 1014.4
20260902103100 55 291 6.1 11.3 0.00 0.00 0.00 90 1014.5
20260902102539 55 274 6.1 12.2 0.00 0.00 0.00 90 1014.6
20260902102040 55 267 7.0 12.2 0.00 0.00 0.00 91 1014.9
20260902101556 54 269 6.1 12.2 0.00 0.00 0.00 91 1015.0
20260902101039 54 308 5.2 9.6 0.00 0.00 0.00 91 1015.0
20260902100539 54 281 3.5 9.6 0.00 0.00 0.00 91 1015.0
20260902100048 54 290 2.6 6.1 0.00 0.00 0.00 91 1015.0
20260902095539 54 261 2.6 7.0 0.00 0.00 0.00 90 1014.8
20260902095038 54 270 2.6 7.0 0.00 0.00 0.00 90 1014.9
20260902094557 54 271 4.3 9.6 0.00 0.00 0.00 90 1014.8
20260902094036 54 296 3.5 9.6 0.00 0.00 0.00 90 1014.7
20260902093536 54 303 4.3 9.6 0.00 0.00 0.00 91 1015.1
20260902093125 54 263 2.6 7.0 0.00 0.00 0.00 91 1015.1
20260902092539 54 270 2.6 7.0 0.00 0.00 0.00 91 1015.1
20260902092041 54 252 3.5 7.8 0.00 0.00 0.00 91 1015.1
20260902091600 54 53 2.6 7.8 0.00 0.00 0.00 91 1015.0
20260902091040 54 264 2.6 7.0 0.00 0.00 0.00 91 1014.8
20260902090539 53 281 1.7 3.5 0.00 0.00 0.00 91 1014.7
20260902090101 54 290 0.9 3.5 0.00 0.00 0.00 91 1015.0
20260902085538 54 277 1.7 5.2 0.00 0.00 0.00 90 1015.1
20260902085038 54 273 2.6 5.2 0.00 0.00 0.00 90 1015.3
20260902084559 54 273 1.7 5.2 0.00 0.00 0.00 90 1015.1
20260902084039 54 254 1.7 7.8 0.00 0.00 0.00 90 1015.1
20260902083535 54 260 1.7 7.8 0.00 0.00 0.00 89 1015.0
20260902083056 54 279 2.6 7.8 0.00 0.00 0.00 89 1015.1
20260902082535 54 277 3.5 7.8 0.00 0.00 0.00 89 1015.2
20260902082038 55 261 4.3 7.8 0.00 0.00 0.00 88 1015.2
20260902081610 55 268 1.7 15.6 0.00 0.00 0.00 88 1015.1
20260902081039 55 272 7.0 16.5 0.00 0.00 0.00 87 1015.1
20260902080539 55 298 11.3 16.5 0.00 0.00 0.00 87 1015.0
20260902080049 55 254 9.6 16.5 0.00 0.00 0.00 88 1015.0
20260902075538 55 302 9.6 16.5 0.00 0.00 0.00 88 1014.8
20260902075039 55 330 7.8 13.9 0.00 0.00 0.00 87 1014.8
20260902074559 55 288 7.8 13.9 0.00 0.00 0.00 87 1014.8
20260902074039 55 277 6.1 12.2 0.00 0.00 0.00 87 1014.7
20260902073538 55 279 6.1 12.2 0.00 0.00 0.00 87 1014.9
20260902073055 55 296 7.0 12.2 0.00 0.00 0.00 87 1014.8
20260902072539 55 275 8.7 13.9 0.00 0.00 0.00 86 1014.9
20260902072035 55 313 7.8 13.9 0.00 0.00 0.00 86 1015.0
20260902071601 55 294 7.8 13.9 0.00 0.00 0.00 86 1014.9
20260902071038 55 298 7.0 13.9 0.00 0.00 0.00 86 1015.0
20260902070538 55 267 7.8 14.8 0.00 0.00 0.00 86 1015.0
20260902070051 55 268 5.2 14.8 0.00 0.00 0.00 86 1015.0
20260902065539 55 282 7.0 14.8 0.00 0.00 0.00 86 1015.0
20260902065039 55 257 7.8 14.8 0.00 0.00 0.00 86 1014.8
20260902064558 55 280 8.7 18.2 0.00 0.00 0.00 86 1014.8
20260902064039 55 273 9.6 18.2 0.00 0.00 0.00 87 1014.8
20260902063538 55 269 10.4 15.6 0.00 0.00 0.00 87 1014.9
20260902063058 55 290 7.8 14.8 0.00 0.00 0.00 88 1014.8
20260902062541 55 263 10.4 18.2 0.00 0.00 0.00 88 1014.7
20260902062038 55 284 11.3 18.2 0.00 0.00 0.00 88 1014.5
20260902061554 55 296 11.3 23.5 0.00 0.00 0.00 88 1014.5
20260902061038 55 247 13.0 23.5 0.00 0.00 0.00 88 1014.3
20260902060537 55 293 10.4 20.9 0.00 0.00 0.00 88 1014.0
20260902060056 55 269 11.3 20.0 0.00 0.00 0.00 87 1014.0
20260902055538 55 317 7.8 16.5 0.00 0.00 0.00 87 1014.0
20260902055039 55 236 7.8 16.5 0.00 0.00 0.00 87 1014.2
20260902054559 55 260 7.8 20.9 0.00 0.00 0.00 87 1014.1
20260902054035 55 240 8.7 20.9 0.00 0.00 0.00 86 1014.2
20260902053538 55 300 7.8 20.0 0.00 0.00 0.00 86 1014.1
20260902053057 55 271 10.4 21.7 0.00 0.00 0.00 86 1014.0
20260902052543 56 277 12.2 22.6 0.00 0.00 0.00 86 1014.0
20260902052039 56 292 13.0 22.6 0.00 0.00 0.00 85 1014.0
20260902051554 56 250 11.3 22.6 0.00 0.00 0.00 84 1013.8
20260902051039 56 303 12.2 28.7 0.00 0.00 0.00 84 1013.8
20260902050538 56 234 13.0 28.7 0.00 0.00 0.00 84 1013.6
20260902050112 56 288 14.8 23.5 0.00 0.00 0.00 83 1013.5
20260902045538 56 265 12.2 22.6 0.00 0.00 0.00 82 1013.6
20260902045038 56 298 9.6 22.6 0.00 0.00 0.00 82 1013.7
20260902044609 56 336 11.3 20.0 0.00 0.00 0.00 82 1013.6
20260902044041 56 252 11.3 19.1 0.00 0.00 0.00 82 1013.8
20260902043540 56 246 10.4 20.0 0.00 0.00 0.00 81 1013.6
20260902043056 57 286 7.8 20.9 0.00 0.00 0.00 81 1013.8
20260902042540 57 314 10.4 20.9 0.00 0.00 0.00 81 1013.8
20260902042041 57 314 7.8 22.6 0.00 0.00 0.00 82 1014.0
20260902041552 57 294 11.3 22.6 0.00 0.00 0.00 83 1014.3
20260902041040 57 309 13.0 21.7 0.00 0.00 0.00 82 1014.2
20260902040539 57 264 10.4 19.1 0.00 0.00 0.00 82 1014.2
20260902040054 57 275 8.7 19.1 0.00 0.00 0.00 81 1014.3
20260902035538 58 292 8.7 16.5 0.00 0.00 0.00 79 1014.2
20260902035038 58 298 8.7 18.2 0.00 0.00 0.00 78 1014.3
20260902034604 58 309 8.7 20.9 0.00 0.00 0.00 78 1014.4
20260902034038 58 252 10.4 20.9 0.00 0.00 0.00 77 1014.5
20260902033538 58 253 8.7 24.3 0.00 0.00 0.00 77 1014.6
20260902033104 58 244 13.0 24.3 0.00 0.00 0.00 77 1014.6
20260902032642 58 313 11.3 24.3 0.00 0.00 0.00 78 1014.6
20260902032039 58 277 10.4 23.5 0.00 0.00 0.00 77 1014.6
20260902031557 57 240 9.6 27.8 0.00 0.00 0.00 79 1014.5
20260902031040 57 273 8.7 27.8 0.00 0.00 0.00 80 1014.4
20260902030539 57 272 11.3 25.2 0.00 0.00 0.00 80 1014.4
20260902030046 57 333 9.6 25.2 0.00 0.00 0.00 83 1014.6
20260902025539 57 342 10.4 20.9 0.00 0.00 0.00 83 1014.6
20260902025039 57 307 10.4 19.1 0.00 0.00 0.00 82 1014.6
20260902024608 57 284 9.6 22.6 0.00 0.00 0.00 82 1014.5
20260902024041 58 262 11.3 22.6 0.00 0.00 0.00 81 1014.7
20260902023539 58 264 10.4 20.0 0.00 0.00 0.00 80 1014.6
20260902023058 58 275 7.0 19.1 0.00 0.00 0.00 82 1014.7
20260902022539 58 248 12.2 19.1 0.00 0.00 0.00 79 1014.6
20260902022036 58 283 12.2 17.4 0.00 0.00 0.00 79 1014.7
20260902021554 58 298 9.6 24.3 0.00 0.00 0.00 79 1014.7
20260902021037 58 251 11.3 24.3 0.00 0.00 0.00 78 1014.7
20260902020536 59 285 12.2 21.7 0.00 0.00 0.00 78 1014.7
20260902020051 59 314 11.3 20.9 0.00 0.00 0.00 78 1014.6
20260902015536 59 281 8.7 29.5 0.00 0.00 0.00 77 1014.7
20260902015042 58 291 11.3 29.5 0.00 0.00 0.00 74 1014.6
20260902014553 58 286 12.2 29.5 0.00 0.00 0.00 74 1014.9
20260902014037 58 260 11.3 21.7 0.00 0.00 0.00 79 1014.7
20260902013540 58 242 9.6 20.9 0.00 0.00 0.00 80 1014.7
20260902013058 58 311 9.6 21.7 0.00 0.00 0.00 79 1014.8
20260902012536 58 253 10.4 21.7 0.00 0.00 0.00 79 1014.7
20260902012036 58 281 13.9 21.7 0.00 0.00 0.00 78 1014.9
20260902011547 58 274 10.4 19.1 0.00 0.00 0.00 77 1014.8
20260902011037 58 291 10.4 19.1 0.00 0.00 0.00 77 1014.8
20260902010535 58 290 9.6 22.6 0.00 0.00 0.00 77 1015.0
20260902010053 58 252 11.3 22.6 0.00 0.00 0.00 75 1014.8
20260902005536 58 267 10.4 22.6 0.00 0.00 0.00 76 1014.8
20260902005037 59 236 9.6 20.9 0.00 0.00 0.00 77 1014.9
20260902004558 59 252 9.6 18.2 0.00 0.00 0.00 78 1015.0
20260902004036 58 267 9.6 18.2 0.00 0.00 0.00 77 1015.0
20260902003539 58 246 10.4 18.2 0.00 0.00 0.00 76 1015.2
20260902003053 58 231 10.4 18.2 0.00 0.00 0.00 76 1015.2
20260902002541 58 240 9.6 19.1 0.00 0.00 0.00 77 1015.2
20260902002035 58 252 12.2 22.6 0.00 0.00 0.00 76 1015.5
20260902001558 57 257 13.0 22.6 0.00 0.00 0.00 76 1015.6
20260902001038 58 249 9.6 20.0 0.00 0.00 0.00 76 1015.6
20260902000538 57 255 11.3 20.0 0.00 0.00 0.00 74 1015.8
20260901235538 57 241 11.3 19.1 0.00 0.00 0.00 75 1015.8
20260901235037 57 296 10.4 18.2 0.00 0.00 0.00 76 1015.7
20260901234554 57 305 9.6 21.7 0.00 0.00 0.00 77 1015.8
20260901234040 57 250 10.4 21.7 0.00 0.00 0.00 75 1015.8
20260901233544 57 304 9.6 17.4 0.00 0.00 0.00 77 1015.8
20260901233054 57 242 9.6 20.0 0.00 0.00 0.00 79 1015.8
20260901232536 57 246 10.4 20.0 0.00 0.00 0.00 77 1015.7
20260901232040 57 258 8.7 18.2 0.00 0.00 0.00 77 1015.6
20260901231548 57 248 8.7 18.2 0.00 0.00 0.00 78 1015.6
20260901231038 57 264 9.6 18.2 0.00 0.00 0.00 77 1015.6
20260901230536 57 281 9.6 19.1 0.00 0.00 0.00 77 1015.7
20260901230058 57 267 12.2 20.0 0.00 0.00 0.00 77 1015.6
20260901225535 58 240 8.7 20.0 0.00 0.00 0.00 80 1015.5
20260901225036 58 298 10.4 20.0 0.00 0.00 0.00 79 1015.6
20260901224555 57 246 10.4 21.7 0.00 0.00 0.00 79 1015.4
20260901224040 57 287 11.3 22.6 0.00 0.00 0.00 79 1015.5
20260901223538 57 281 12.2 22.6 0.00 0.00 0.00 79 1015.6
20260901223052 57 265 9.6 20.0 0.00 0.00 0.00 79 1015.5
20260901222536 57 309 12.2 20.0 0.00 0.00 0.00 78 1015.5
20260901222038 58 261 10.4 20.0 0.00 0.00 0.00 80 1015.4
20260901221549 57 265 9.6 20.0 0.00 0.00 0.00 78 1015.4
20260901221038 57 278 8.7 18.2 0.00 0.00 0.00 80 1015.4
20260901220536 57 248 10.4 18.2 0.00 0.00 0.00 79 1015.3
20260901220049 57 284 9.6 18.2 0.00 0.00 0.00 79 1015.4
20260901215539 57 263 11.3 18.2 0.00 0.00 0.00 80 1015.5
20260901215036 56 254 9.6 18.2 0.00 0.00 0.00 78 1015.4
20260901214555 56 254 8.7 18.2 0.00 0.00 0.00 78 1015.3
20260901214039 56 248 10.4 20.9 0.00 0.00 0.00 78 1015.2
20260901213536 56 278 11.3 20.9 0.00 0.00 0.00 78 1015.1
20260901213111 56 248 11.3 20.0 0.00 0.00 0.00 77 1015.1
20260901212536 56 286 9.6 17.4 0.00 0.00 0.00 79 1015.1
20260901212036 56 248 10.4 20.0 0.00 0.00 0.00 78 1015.2
20260901211557 57 339 8.7 21.7 0.00 0.00 0.00 80 1015.1
20260901211041 56 251 8.7 21.7 0.00 0.00 0.00 80 1014.9
20260901210541 56 269 9.6 20.9 0.00 0.00 0.00 80 1014.8
20260901210058 56 275 8.7 20.9 0.00 0.00 0.00 80 1014.7
20260901205537 56 246 9.6 18.2 0.00 0.00 0.00 80 1014.7
20260901205039 56 244 8.7 18.2 0.00 0.00 0.00 81 1014.8
20260901204555 56 246 10.4 18.2 0.00 0.00 0.00 81 1014.8
20260901204039 56 234 9.6 18.2 0.00 0.00 0.00 82 1014.9
20260901203539 56 237 7.8 19.1 0.00 0.00 0.00 83 1014.8
20260901203052 56 247 7.8 19.1 0.00 0.00 0.00 83 1014.6
20260901202540 56 292 9.6 19.1 0.00 0.00 0.00 83 1014.6
20260901202039 55 252 11.3 18.2 0.00 0.00 0.00 83 1014.5
20260901201603 55 242 7.0 14.8 0.00 0.00 0.00 84 1014.5
20260901201039 55 286 8.7 14.8 0.00 0.00 0.00 83 1014.5
20260901200539 55 272 6.1 16.5 0.00 0.00 0.00 84 1014.5
20260901200057 54 286 7.8 17.4 0.00 0.00 0.00 83 1014.6
20260901195539 54 288 8.7 17.4 0.00 0.00 0.00 83 1014.6
20260901195041 54 243 9.6 17.4 0.00 0.00 0.00 83 1014.6
20260901194559 54 287 8.7 14.8 0.00 0.00 0.00 84 1014.6
20260901194036 54 286 6.1 12.2 0.00 0.00 0.00 85 1014.5
20260901193539 54 285 3.5 13.9 0.00 0.00 0.00 85 1014.5
20260901193054 54 254 5.2 14.8 0.00 0.00 0.00 84 1014.5
20260901192537 54 245 7.8 14.8 0.00 0.00 0.00 85 1014.5
20260901192039 53 293 6.1 13.9 0.00 0.00 0.00 85 1014.5
20260901191549 54 299 5.2 13.9 0.00 0.00 0.00 86 1014.5
20260901191035 54 302 5.2 11.3 0.00 0.00 0.00 86 1014.3
20260901190538 54 251 6.1 11.3 0.00 0.00 0.00 86 1014.4
20260901190050 54 245 7.0 11.3 0.00 0.00 0.00 86 1014.4
20260901185540 54 252 6.1 10.4 0.00 0.00 0.00 86 1014.4
20260901185038 54 253 5.2 13.9 0.00 0.00 0.00 86 1014.4
20260901184552 54 236 6.1 13.9 0.00 0.00 0.00 86 1014.3
20260901184039 54 235 6.1 14.8 0.00 0.00 0.00 86 1014.3
20260901183538 54 244 6.1 14.8 0.00 0.00 0.00 86 1014.5
20260901183051 53 302 6.1 11.3 0.00 0.00 0.00 86 1014.4
20260901182539 54 247 3.5 13.9 0.00 0.00 0.00 86 1014.2
20260901182036 54 292 5.2 17.4 0.00 0.00 0.00 85 1014.3
20260901181547 54 274 9.6 17.4 0.00 0.00 0.00 85 1014.2
20260901181036 53 265 8.7 17.4 0.00 0.00 0.00 86 1014.2
20260901180535 53 248 9.6 17.4 0.00 0.00 0.00 86 1014.1
20260901180058 53 295 7.0 16.5 0.00 0.00 0.00 85 1013.9
20260901175539 53 234 7.8 16.5 0.00 0.00 0.00 85 1013.8
20260901175041 53 311 8.7 15.6 0.00 0.00 0.00 85 1013.8
20260901174551 53 251 7.8 14.8 0.00 0.00 0.00 85 1013.8
20260901174038 53 280 5.2 14.8 0.00 0.00 0.00 85 1013.9
20260901173540 53 259 4.3 13.0 0.00 0.00 0.00 85 1014.0
20260901173048 53 264 6.1 14.8 0.00 0.00 0.00 85 1013.9
20260901172539 53 287 7.8 15.6 0.00 0.00 0.00 85 1013.9
20260901172039 53 259 8.7 15.6 0.00 0.00 0.00 85 1013.9
20260901171606 53 294 5.2 13.9 0.00 0.00 0.00 85 1013.9
20260901171040 53 276 7.0 20.0 0.00 0.00 0.00 84 1013.8
20260901170539 53 292 7.8 20.0 0.00 0.00 0.00 84 1013.8
20260901170055 53 291 8.7 17.4 0.00 0.00 0.00 85 1013.8
20260901165539 53 257 7.0 14.8 0.00 0.00 0.00 85 1013.7
20260901165040 53 304 5.2 13.0 0.00 0.00 0.00 86 1013.8
20260901164558 53 288 6.1 13.0 0.00 0.00 0.00 86 1013.7
20260901164038 53 318 6.1 13.0 0.00 0.00 0.00 86 1013.7
20260901163539 53 276 6.1 13.0 0.00 0.00 0.00 86 1013.8
20260901163053 53 248 6.1 13.0 0.00 0.00 0.00 86 1013.7
20260901162542 53 273 6.1 13.0 0.00 0.00 0.00 86 1013.7
20260901162038 53 279 6.1 13.0 0.00 0.00 0.00 86 1013.8
20260901161553 53 255 5.2 12.2 0.00 0.00 0.00 85 1013.8
20260901161036 53 248 7.8 17.4 0.00 0.00 0.00 85 1013.8
20260901160539 53 263 6.1 17.4 0.00 0.00 0.00 85 1013.7
20260901160049 53 298 6.1 13.0 0.00 0.00 0.00 85 1013.7
20260901155536 53 227 7.8 15.6 0.00 0.00 0.00 85 1013.6
20260901155036 53 257 8.7 15.6 0.00 0.00 0.00 84 1013.5
20260901154546 53 269 7.8 14.8 0.00 0.00 0.00 84 1013.5
20260901154036 53 291 7.8 14.8 0.00 0.00 0.00 84 1013.3
20260901153543 53 261 8.7 17.4 0.00 0.00 0.00 84 1013.3
20260901153101 53 267 8.7 18.2 0.00 0.00 0.00 85 1013.2
20260901152536 53 257 9.6 18.2 0.00 0.00 0.00 86 1013.2
20260901152039 53 236 7.0 13.0 0.00 0.00 0.00 86 1013.3
20260901151553 53 295 7.0 13.0 0.00 0.00 0.00 86 1013.4
20260901151039 53 245 7.0 13.9 0.00 0.00 0.00 85 1013.5
20260901150537 53 277 7.0 13.9 0.00 0.00 0.00 85 1013.4
20260901145540 53 230 8.7 13.9 0.00 0.00 0.00 85 1013.4
20260901145038 53 297 8.7 13.9 0.00 0.00 0.00 85 1013.4
20260901144558 53 233 6.1 13.0 0.00 0.00 0.00 86 1013.5
20260901144035 53 250 6.1 13.0 0.00 0.00 0.00 85 1013.5
20260901143539 53 256 8.7 13.9 0.00 0.00 0.00 85 1013.5
20260901143105 52 244 7.8 13.9 0.00 0.00 0.00 85 1013.4
20260901142539 52 248 8.7 13.9 0.00 0.00 0.00 85 1013.5
20260901142039 52 257 7.0 11.3 0.00 0.00 0.00 84 1013.6
20260901141604 52 248 7.0 15.6 0.00 0.00 0.00 84 1013.6
20260901141039 52 253 7.0 15.6 0.00 0.00 0.00 84 1013.7
20260901140538 51 257 7.0 12.2 0.00 0.00 0.00 84 1013.8
20260901140058 51 240 6.1 11.3 0.00 0.00 0.00 85 1013.7
20260901135543 50 243 4.3 9.6 0.00 0.00 0.00 85 1013.7
20260901135040 50 245 5.2 11.3 0.00 0.00 0.00 86 1013.8
20260901134619 50 284 4.3 11.3 0.00 0.00 0.00 85 1013.8
20260901134040 50 293 3.5 9.6 0.00 0.00 0.00 84 1013.7
20260901133542 50 311 5.2 9.6 0.00 0.00 0.00 84 1013.8
20260901133101 50 305 6.1 7.8 0.00 0.00 0.00 85 1013.8
20260901132539 50 261 3.5 8.7 0.00 0.00 0.00 85 1013.9
20260901132040 50 280 4.3 9.6 0.00 0.00 0.00 85 1013.8
20260901131549 50 242 3.5 9.6 0.00 0.00 0.00 86 1013.7
20260901131039 49 245 3.5 9.6 0.00 0.00 0.00 86 1013.7
20260901130540 50 269 3.5 9.6 0.00 0.00 0.00 85 1013.7
20260901130059 50 270 3.5 8.7 0.00 0.00 0.00 86 1013.5
20260901125539 50 291 4.3 8.7 0.00 0.00 0.00 85 1013.5
20260901125039 50 248 4.3 9.6 0.00 0.00 0.00 86 1013.4
20260901124600 49 267 4.3 9.6 0.00 0.00 0.00 86 1013.4
20260901124042 49 253 4.3 8.7 0.00 0.00 0.00 86 1013.2
20260901123539 49 261 4.3 8.7 0.00 0.00 0.00 86 1013.4
20260901123055 49 241 3.5 10.4 0.00 0.00 0.00 86 1013.4
20260901122540 49 244 3.5 10.4 0.00 0.00 0.00 86 1013.4
20260901122040 49 242 4.3 10.4 0.00 0.00 0.00 86 1013.4
20260901121549 50 277 6.1 10.4 0.00 0.00 0.00 86 1013.4
20260901121039 50 240 5.2 8.7 0.00 0.00 0.00 86 1013.3
20260901120540 50 290 5.2 8.7 0.00 0.00 0.00 86 1013.3
20260901120056 49 244 4.3 11.3 0.00 0.00 0.00 87 1013.3
20260901115539 49 272 3.5 11.3 0.00 0.00 0.00 86 1013.3
20260901115039 49 255 4.3 11.3 0.00 0.00 0.00 87 1013.4
20260901114601 49 259 3.5 7.8 0.00 0.00 0.00 87 1013.5
20260901114039 49 246 4.3 7.8 0.00 0.00 0.00 87 1013.5
20260901113539 49 269 4.3 7.8 0.00 0.00 0.00 87 1013.6